sat.trackr.live / text

‹ back to catalog

UTMN 2 (RS27S)

NORAD 57203 · 2023-091AP

PAYLOAD ACTIVE UNKNOWN

§ Identity

Operator
Country
CIS
Launch date
2023-06-27
Launch site
VOSTO
Launch vehicle
Mass (kg)
RCS (m²)

Purposes: comms

External: N2YO · Heavens-Above · Gunter

§ Orbital elements

Epoch: 2026-05-25T04:42:41.430240Z

Period
94.03 min
Inclination
97.5098°
Eccentricity
0.0009147
Mean motion
15.31396568 rev/d
Perigee alt
465.4 km
Apogee alt
477.9 km
Semi-major
6,849.8 km
B*
4.4593e-4
RAAN
212.1085°
Arg perigee
152.5854°
Mean anomaly
207.5872°
Rev number
16,102

§ Raw data

UTMN 2 (RS27S)1 57203U 23091AP  26145.19631285  .00013468  00000+0  44593-3 0  99942 57203  97.5098 212.1085 0009147 152.5854 207.5872 15.31396568161025

JSON: /api/v1/satellites/57203 · /tle

For live sub-satellite position, see the globe view (requires WebGL).

§ Visibility from observer

Set your observer location to see the next 7 days of passes ≥ 10°. The values pass through the URL so the page stays shareable.

No JS? Fill the form by hand. The geolocation button needs JavaScript.

§ Radio — SatNOGS DB

ModeDescriptionDownlinkUplink
GMSK USP Mode U - GMSK 2k4 (USP FEC) TLM 436.125 MHz
GMSK USP Mode U - GMSK 4k8 (USP FEC) TLM 436.125 MHz
GMSK USP Mode U - GMSK 9k6 (USP FEC) TLM 435.680 MHz
SSTV Mode U - Robot 36 SSTV 436.125 MHz

4 transmitters · refreshed weekly from db.satnogs.org